Terug naar catalogus

METEOR 2-6 DEB

ActiefPO
NORAD 45501·DEBRIS·🇷🇺 Russia

Gelanceerd Sep 9, 1980 vanaf Plesetsk Cosmodrome

Loading…

Volgende Passages (komende 24 uur)

TLE

VersSource: Space-Track

Epoch: Sep 13, 2026, 10:50 UTC

1 45501U 80073V   26256.45168138  .00002967  00000-0  98935-3 0  9991
2 45501  81.2178 303.6313 0033492  51.9644 308.4556 14.37059315582973

Volg METEOR 2-6 DEB in realtime met AllMySat

Download on the App Store